Flag for Germany Weather past 2 weeks in Koblenz, Rhineland-Palatinate, Germany

Now
84 °F

Warm.


Feels Like: 85 °F
Forecast: 71 / 98 °F
Wind: 5 mph from East

Location: Buechel

Current Time: Jul 3, 2015 at 2:53:47 PM

Latest Report: Jul 3, 2015 at 1:20 PM


Visibility: N/A

Pressure: 30.27 "Hg

Humidity: 48%

Dew point: 63 °F

Location of KoblenzLocation

Historic Weather in Koblenz — Graph

°F

Koblenz temperature yesterday

Maximum temperature yesterday: 91 °F (at 3:20 PM)
Minimum temperature yesterday: 72 °F (at 5:20 AM)
Average temperature yesterday: 82 °F

Past Weeks' High & Low Weather Summary

 TemperatureHumidityPressure
High91 °F (Jul 2, 3:20 PM)100% (Jun 21, 6:20 AM)30.30 "Hg (Jun 21, 6:20 AM)
Low43 °F (Jun 23, 2:20 AM)30% (Jun 29, 4:20 PM)29.68 "Hg (Jun 22, 9:20 PM)
Average62 °F67%30.10 "Hg
* Reported Jun 18 1:20 PM — Jul 3 1:20 PM, Koblenz, Weather by CustomWeather, © 2015

Note: Actual official high and low records may vary slightly from our data, if they occured in-between our weather recording intervals... More about our weather records

Advertising

Koblenz weather history for previous 24 hours

 ConditionsComfort  
Time TempWeatherWind HumidityBarometerVisibility
1:20 PM
Fri, Jul 3
84 °FWarm.5 mph48%30.27 "HgN/A
12:20 PM81 °FWarm.7 mph58%30.27 "HgN/A
11:20 AM79 °FWarm.6 mph61%30.27 "HgN/A
10:20 AM75 °FMild.6 mph65%30.30 "HgN/A
9:20 AM72 °FMild.5 mph69%30.30 "HgN/A
8:20 AM72 °FPassing clouds.6 mph69%30.27 "HgN/A
7:20 AM68 °FPassing clouds.7 mph73%30.27 "HgN/A
6:20 AM66 °FPassing clouds.6 mph83%30.27 "HgN/A
5:20 AM66 °FMild.7 mph83%30.24 "Hg4 mi
4:20 AM68 °FMild.6 mph78%30.24 "Hg3 mi
3:20 AM70 °FMild.10 mph83%30.24 "Hg3 mi
2:20 AM73 °FMild.8 mph69%30.21 "Hg4 mi
1:20 AM77 °FWarm.6 mph57%30.21 "Hg4 mi
12:20 AM79 °FWarm.6 mph51%30.18 "Hg4 mi
11:20 PM
Thu, Jul 2
81 °FWarm.3 mph48%30.18 "Hg4 mi
10:20 PM81 °FWarm.7 mph48%30.18 "Hg4 mi
9:20 PM84 °FWarm.7 mph45%30.15 "Hg6 mi
8:20 PM88 °FWarm.7 mph40%30.15 "Hg6 mi
7:20 PM90 °FHot.9 mph38%30.15 "HgN/A
6:20 PM90 °FHot.10 mph38%30.15 "HgN/A
5:20 PM91 °FHot.8 mph36%30.15 "HgN/A
5:03 PM91 °FPassing clouds.9 mph36%30.12 "HgN/A
4:20 PM91 °FPassing clouds.12 mph36%30.12 "HgN/A
3:20 PM91 °FPassing clouds.9 mph36%30.12 "HgN/A
2:20 PM90 °FPassing clouds.8 mph36%30.15 "HgN/A
Weather by CustomWeather, © 2015

See weather overviewHow to use our weather pages